Powrót do katalogu

IRIDE-MS2-HEO-14

AktywnyNaukaSSO
NORAD 68986·PAYLOAD·🇮🇹 Italy

Wystrzelony May 3, 2026 z Vandenberg Space Force Base

Loading…

Następne Przeloty (najbliższe 24 godziny)

TLE

ŚwieżeSource: Space-Track

Epoka: Sep 14, 2026, 10:08 UTC

1 68986U 26100G   26257.42241566  .00000948  00000-0  10021-3 0  9996
2 68986  97.7233 153.1483 0003867 140.1690 219.9813 14.91507533 20003

Śledź IRIDE-MS2-HEO-14 w czasie rzeczywistym z AllMySat

Download on the App Store